BEIDOU-3 M23 (C45)

Last updated on Fri Oct 24 2025 00:03:29 GMT+0000 (Coordinated Universal Time)

1 44543U 19061B 25296.30935881 .00000032 00000+0 00000+0 0 9991 2 44543 54.4001 190.6868 0005824 6.8041 174.9608 1.86229705 41383
UTC large
Height (km)
Speed (km/s)
/
Latitude / Longitude
Inclination (degrees)
Orbital Period (minutes)
Azimuth
Elevation
Range (km)
Doppler Factor

Next 0 passes for location: London (51.5072 / 0.1276)

Sorry there are no passes over London.